This is the latest recevied weather packets stored in our database for station/object VK2BLR. If no packets are shown the sender has not sent any weather packets the latest 10 day(s).
| Time | Temp. | Humidity | Pressure | Rain* | Wind** | Luminosity | Snow |
|---|---|---|---|---|---|---|---|
| 1777359980 | 23.33° C | 27% | 1022.6 hPa | 0 mm | - | - | - |
| 1777359080 | 23.89° C | 26% | 1022.7 hPa | 0 mm | - | - | - |
| 1777358180 | 24.44° C | 26% | 1022.5 hPa | 0 mm | - | - | - |
| 1777357280 | 25° C | 25% | 1022.6 hPa | 0 mm | - | - | - |
| 1777356380 | 25° C | 25% | 1022.5 hPa | 0 mm | - | - | - |
| 1777355480 | 25° C | 25% | 1022.5 hPa | 0 mm | - | - | - |
| 1777354581 | 25.56° C | 25% | 1022.6 hPa | 0 mm | - | - | - |
| 1777353680 | 25.56° C | 25% | 1022.6 hPa | 0 mm | - | - | - |
| 1777352779 | 26.11° C | 26% | 1022.6 hPa | 0 mm | - | - | - |
| 1777351880 | 26.11° C | 25% | 1022.5 hPa | 0 mm | - | - | - |
| 1777350981 | 26.11° C | 25% | 1022.6 hPa | 0 mm | - | - | - |
| 1777350080 | 26.11° C | 24% | 1022.7 hPa | 0 mm | - | - | - |
| 1777349179 | 26.67° C | 23% | 1022.7 hPa | 0 mm | - | - | - |
| 1777348281 | 26.67° C | 23% | 1022.9 hPa | 0 mm | - | - | - |
| 1777347381 | 27.22° C | 23% | 1022.9 hPa | 0 mm | - | - | - |
| 1777346479 | 26.67° C | 24% | 1023.2 hPa | 0 mm | - | - | - |
| 1777345579 | 26.67° C | 23% | 1023.4 hPa | 0 mm | - | - | - |
| 1777344681 | 27.22° C | 24% | 1023.5 hPa | 0 mm | - | - | - |
| 1777343781 | 26.67° C | 25% | 1023.7 hPa | 0 mm | - | - | - |
| 1777342881 | 26.67° C | 26% | 1023.8 hPa | 0 mm | - | - | - |
| 1777341979 | 26.67° C | 27% | 1024 hPa | 0 mm | - | - | - |
| 1777341081 | 26.67° C | 28% | 1024.2 hPa | 0 mm | - | - | - |
| 1777340179 | 26.67° C | 29% | 1024.3 hPa | 0 mm | - | - | - |
| 1777339281 | 26.67° C | 30% | 1024.4 hPa | 0 mm | - | - | - |
| 1777338380 | 26.67° C | 30% | 1024.6 hPa | 0 mm | - | - | - |
* Rain latest hour (hover to see other rain measurements)
** Current wind speed in m/s (hover to see current wind gust speed)